Showing default

COSMOS 1989 (ETALON 1), 19751

Orbit data source: Space-Track

COSMOS 1989 (ETALON 1), 19751 is a payload satellite owned by NPO PM (CIS) in MEO that was launched on Tue, 10 Jan 1989 UTC via a PROTON-K/DM-2 launch vehicle from the Tyuratam Missile And Space Complex (TTMTR). Payload-class satellites include a variety of spacecraft equipped with specific instruments for various scientific and technological missions. These include communications satellites like Starlink; space stations such as the ISS; scientific satellites like the Hubble; Earth observation satellites from companies like Planet Labs, Umbra, and HawkEye 360; GPS; miniature CubeSats for education and research; and military/defense satellites.

Loading next visibility...
Identifier
19751, 1989-001C
Orbit
MEO
Country
Flag of CISCIS
Related business
Manufacturer
OAZ?
Mission
Operational Defense Geodetic
Bus & Motor
ETALON, Unknown motor
Mass
1,230 kg wet, 1,230 kg dry
Launch date (UTC)
1989-01-10 (37 years ago)
Launch vehicle
PROTON-K/DM-2
Launch site
Tyuratam Missile And Space Complex (TTMTR)
Object type
Payload
Rocket body
Debris
Shape & HBR
Sphere, 0.6 m
Radar Cross Section
1.307 m², Large (>1 m²)

Expand to show TLE details & history
Last TLE update: 1 day ago

TLE from 1 day ago
0 COSMOS 1989 (ETALON 1)
1 19751U 89001C   26073.07896895  .00000054  00000-0  00000-0 0  9990
2 19751  64.8905  75.4467 0023419 217.5929 205.2239  2.13156113289346
Epoch: 2026-03-14T01:53Z
TLE epoch observation values (Epoch: 2026-03-14T01:53:42.917Z)
Latitude
53.59534°
Longitude
-85.2663°
Altitude
19,187.436 km
Speed
3.946 km/s
True Right ascension
07h 39m 28s
True Declination
53° 32' 58"
Sunlit
Object was in daylight at epoch
Visualization orbit readout
Latitude
Unknown
Longitude
Unknown
Altitude
Unknown
Speed
Unknown
Apparent Right ascension
Unknown
Apparent Declination
Unknown
Sunlit
N/A
Visualization observer readout
Local Sidereal Time
14:18:59
Azimuth
Unknown
Elevation
Unknown
Doppler factor
Unknown
Orbital elements
Apogee altitude
19,184.915 km
Perigee altitude
19,065.463 km
Semi-major axis
25,503.326 km
Eccentricity
0.00234
Inclination
64.8905°
RAAN
75.4467°
Arg. of periapsis
217.5929°
True anomaly
205.10984°
Mean anomaly
205.2239°
Eccentric anomaly
205.16684°
Mean motion
0.5329 °/min
Orbital period
675.55 mins
BSTAR
0
Loading maneuver chart data...
Computing Atmospheric mass density...

Documentation

Showing up to 5 results
|